Tracking 20037 objects as of 20-Nov-2019
Live streaming from Space Station
objects crossing your sky now

COSMOS 2065

Track COSMOS 2065 now!
10-day predictions
COSMOS 2065 is classified as:


NORAD ID: 20550
Int'l Code: 1990-029B
Perigee: 1,468.3 km
Apogee: 1,482.0 km
Inclination: 74.0 °
Period: 115.3 minutes
Semi major axis: 7846 km
RCS: 0.6645 m2 (medium)
Launch date: April 6, 1990
Source: Commonwealth of Independent States (former USSR) (CIS)
Launch site: PLESETSK MISSILE AND SPACE COMPLEX (PKMTR)
aabbcc
Your satellite tracking list
Your tracking list is empty




NASA's NSSDC Master Catalog

Two Line Element Set (TLE):
1 20550U 90029B   19323.87610674 -.00000011 +00000-0 +31025-4 0  9997
2 20550 073.9818 254.3915 0008736 326.4404 089.2192 12.49164094350847
Source of the keplerian elements: AFSPC